Regional Weather Roundup
Issued by NWS Wakefield, VA

Home | Current Version | Previous Version | Text Only | Print | Product List | Glossary On
Versions: 1 2 3 4 5 6 7 8 9 10 11 12 13 14 15 16 17 18 19 20 21 22 23 24 25 26 27
000
ASUS41 KAKQ 241810
RWRAKQ

REGIONAL WEATHER ROUNDUP
NATIONAL WEATHER SERVICE WAKEFIELD VA
200 PM EDT FRI OCT 24 2014

Note: "fair" indicates few or no clouds below 12,000 feet with no
significant weather and/or obstructions to visibility. * = Denotes
station may not report precipitation (e.g., rain,snow,etc.),
thunder or fog.

VAZ042-051-052>054-056-241900-
NORTHERN VIRGINIA

CITY           SKY/WX    TMP DP  RH WIND       PRES   REMARKS
WASH NATIONAL  CLOUDY    69  40  34 NW10      29.92F
DULLES         PTSUNNY   64  39  39 NW13G23   29.94F
FORT BELVOIR   MOSUNNY   65  41  40 NW15      29.92F
QUANTICO       MOSUNNY   67  39  35 NW13G18   29.94F
FREDERICKSBRG* PTSUNNY   67  40  36 NW5       29.94F
STAFFORD*      PTSUNNY   64  39  40 NW10      29.98F
WARRENTON      MOSUNNY   66  47  49 NW10      29.94F
CULPEPER*      CLOUDY    66  39  37 W6        29.96F
MANASSAS*      SUNNY     66  39  37 NW14G20   29.94F
LEESBURG*      MOSUNNY   64  43  45 NW10      29.94F
WINCHESTER     MOSUNNY   64  32  29 NW14      29.96F
FRONT ROYAL*   MOCLDY    63  39  42 NW6       29.95F
LURAY*         MOCLDY    64  43  45 CALM      29.98F HAZE
$$

VAZ048-049-060>072-079>083-241900-
CENTRAL AND SOUTH CENTRAL VIRGINIA...AND NORTH CENTRAL NORTH CAROLINA

CITY           SKY/WX    TMP DP  RH WIND       PRES   REMARKS
RICHMOND       PTSUNNY   67  42  40 W10       29.95F
CHESTERFIELD*    N/A    N/A N/A N/A MISG        N/A
PETERSBURG*    MOSUNNY   67  39  35 W7        29.97F
HANOVER        MOSUNNY   67  42  40 NW7       29.97F
TAPPAHANNOCK*  MOSUNNY   68  36  30 NW7       29.94F
CHARLOTTSVILLE PTSUNNY   67  37  33 NW7       29.96F
ORANGE*        CLOUDY    64  39  39 W3        29.97F
LOUISA*        CLOUDY    64  45  48 NW5       29.95F
FARMVILLE*     SUNNY     70  39  32 CALM      29.95F
CREWE*         CLEAR     68  40  36 NW5       29.97F
FORT PICKETT*  CLEAR     67  42  40 W5        29.97F
LUNENBURG*     CLEAR     68  46  45 CALM      29.97F
SOUTH HILL*    SUNNY     72  39  30 CALM      30.02F
LAWRENCEVILLE* CLEAR     68  44  40 NW3       29.97F
ROANOKE RAPIDS CLEAR     68  43  40 W7        29.97F
RALEIGH        PTSUNNY   68  43  40 CALM      29.99F
$$

VAZ088>098-241900-
SOUTHEAST VIRGINIA

CITY           SKY/WX    TMP DP  RH WIND       PRES   REMARKS
NORFOLK        SUNNY     65  45  48 MISG      29.93F
VIRGINIA BEACH MOSUNNY   67  47  48 NW13      29.92F
NORFOLK NAVAL  PTSUNNY   68  48  48 NW9       29.94F
WEST POINT*    MOSUNNY   70  41  35 W7        29.94F
NEWPORT NEWS   SUNNY     70  47  43 W9        29.93F
LANGLEY AFB    SUNNY     67  48  50 NW13      29.92F
FORT EUSTIS    SUNNY     66  45  45 NW9       29.92F
WILLIAMSBURG*  SUNNY     72  48  43 NW12      29.94F
HR EXEC AP*    CLEAR     64  48  55 NW6       29.96F
FRANKLIN*      MOSUNNY   66  45  45 NW8       29.95F
WAKEFIELD      SUNNY     68  43  40 VRB7      29.95F
$$

VAZ020-022-025-037-045-241900-
WEST CENTRAL AND SOUTHWEST VIRGINIA

CITY           SKY/WX    TMP DP  RH WIND       PRES   REMARKS
STAUNTON*      PTSUNNY   63  41  45 NE3       30.00F
HOT SPRINGS VA MOSUNNY   54  38  55 W10       30.02F
LYNCHBURG      MOSUNNY   66  38  35 VRB5      30.00F
DANVILLE       MOSUNNY   69  43  38 SW7       30.00F HAZE
SOUTH BOSTON*  NOT AVBL
MARTINSVILLE   MOSUNNY   67  38  35 N3        30.02F
ROANOKE        PTSUNNY   66  42  41 SW3       30.02F
BLACKSBURG     SUNNY     61  45  55 W6        30.05F
DUBLIN*        MOSUNNY   61  38  42 CALM      30.06F
MARION*        MOSUNNY   63  40  41 CALM      30.08F
HILLSVILLE*    MOSUNNY   57  39  52 NW8       30.05F
RICHLANDS*     PTCLDY    57  44  62 NW3       30.08F
WISE*          MOSUNNY   55  41  58 NE6       30.10F
ABINGDON*      PTSUNNY   59  43  55 CALM      30.08F
$$

MDZ021>025-VAZ099-100-241900-
SOUTHERN MARYLAND AND THE DELMARVA PENINSULA

CITY           SKY/WX    TMP DP  RH WIND       PRES   REMARKS
PATUXENT RIVER MOSUNNY   67  43  41 NW13      29.90F
BAY BRIDGE APT   N/A     64  41  42 NW13      29.89S
LEONARDTOWN    MOSUNNY   66  41  39 W9G17     29.92F
DOVER          MOSUNNY   66  46  48 W18       29.82F
GEORGETOWN     SUNNY     68  46  45 N8G17     29.85F
EASTON         MOSUNNY   68  46  45 NW12G20   29.91F
CAMBRIDGE      SUNNY     66  45  45 NW12G20   29.88F
SALISBURY      SUNNY     69  45  41 NW13G21   29.86F
OCEAN CITY     MOSUNNY   66  47  50 NW12G21   29.84F
WALLOPS ISLAND PTSUNNY   66  48  52 NW10      29.88F
ACCOMACK*      MOSUNNY   64  45  48 NW17G25   29.90F
$$

NCZ012>017-030>032-241900-
EASTERN NORTH CAROLINA

CITY           SKY/WX    TMP DP  RH WIND       PRES   REMARKS
ELIZABETH CITY MOSUNNY   70  49  47 NW8       29.94F
AHOSKIE*       SUNNY     66  43  43 NW5       29.97F
EDENTON*       MOSUNNY   68  47  48 NW9G16    29.96F
CURRITUCK*     MOSUNNY   65  45  47 NW6       29.95S
KILL DEVIL HLS MOSUNNY   63  48  58 W7        29.93F
MANTEO         MOSUNNY   61  47  60 NW6       29.95F
CAPE HATTERAS  PTSUNNY   63  49  60 NW8       29.96F
TARBORO*       PTCLDY    71  43  37 N6        29.98F
GOLDSBORO      MOSUNNY   69  50  50 VRB7      29.97F
WASHINGTON     MOSUNNY   67  46  46 NW6       29.98F
GREENVILLE     MOSUNNY   68  45  42 NW8       30.00F
NEW BERN       SUNNY     72  45  37 W6        29.99F
WILMINGTON     MOSUNNY   69  47  45 NW3       29.99F
$$

VAZ048-241900-
ELSEWHERE

CITY           SKY/WX    TMP DP  RH WIND       PRES   REMARKS
HARRISBURG PA  MOSUNNY   65  38  36 W13       29.88F
BALTIMORE      NOT AVBL
ANNAPOLIS      MOSUNNY   65  42  43 NW8       29.89F
ANDREWS AFB    MOSUNNY   64  43  45 NW16      29.90F
WILMINGTON DE  MOSUNNY   68  45  43 NW20G26   29.85F
PHILADELPHIA   MOSUNNY   68  43  40 NW17G24   29.82F
WILDWOOD NJ*   MOSUNNY   64  46  52 W13G20    29.83F
ATLANTIC CITY  SUNNY     66  45  46 NW22      29.80F
HENDERSON NC   SUNNY     67  40  36 CALM      29.99F HAZE
GREENSBORO     PTSUNNY   65  39  38 N6        30.01F
ROCKY MOUNT    MOSUNNY   70  46  42 VRB3      29.98F
FAYETTEVILLE   MOSUNNY   69  44  40 CALM      30.00F
CHARLOTTE      CLOUDY    67  40  37 NW5       30.02F
$$

VAZ100-241900-
MARINE

STATION/POSITION TIME  TEMP    WIND        PRES    WAVE   SWELL
                       AIR SEA DIR/SP/G            HT/PER HT/PER
                 (UTC) (F)     (DEG/KT/KT) (MB)    (FT/S) (FT/S)
44066 TX TWR #4  1800   57 66  320/ 17/ 21 1007.5F   6/ 6   2/10
CAPE MAY NJ      1800   63 63  320/  8/ 15 1009.6F
LEWES DE         1800   62 58  330/ 14/ 15 1010.1F
15NM E FENWICK I 1800   62 64  310/ 19/ 23 1009.9F   6/ 5
OCEAN-CITY-INLET 1800   64 63  360/ 12/ 15 1010.0F
WACHAPREAGUE VA  1800   64 60  300/  5/ 13 1012.2F
THOMAS POINT MD  1800   63 62  300/ 15/ 17 1012.8F
GOOSES REEF MD   1800   63     340/ 12/ 14 1012.8F
COVE POINT MD    1800   63     350/ 14/ 15 1012.2F
SOLOMONS ISLAND  1800      64                N/A
BISHOPS HEAD MD  1800   61 58  290/ 15/ 17 1012.0R
PINEY POINT MD   1800          310/ 19/ 21   N/A
POTOMAC MD       1800   61     290/ 16/ 17 1012.2F
CAMBRIDGE MD     1800   63 60  300/ 12/ 16 1011.6F
LEWISETTA VA     1800   62 60  310/ 10/ 12 1012.6F
RAPPAHANNOCK LGT 1800          290/ 14/ 16 1013.1F
STINGRAY PT      1800   61     300/ 16/ 17 1013.6F
YORK RVR RNG VA  1800   63     310/  9/ 13 1012.6F
YORKTOWN VA      1800   62 64  310/ 15/ 17 1013.0F
JAMESTOWN VA     1800   62     340/ 10/ 12   N/A
DOMINION TERM VA 1800   62     300/ 14/ 17 1013.5F
KIPTOPEKE VA     1800      65  310/ 13/ 15   N/A
CHES BAY BRIDGE  1800   61 65  290/ 12/ 14 1012.8F
CHESAPEAKE LGHT  1700   60     320/ 20/ 23 1014.0F
WILLOUBY STN VA  1800   63     320/  7/  8 1012.2F
S CRANEY ISL VA  1800          260/  8/ 12 1013.4F
CAPE HENRY BUOY  1800      67                N/A     4/ 6
1ST LANDING BUOY 1800   61     310/ 14/ 17 1013.2F
CAPE CHARLES BUO 1800      66                N/A     3/ 7   2/ 7
64NM E OF VA BCH 1800   61 67  320/ 17/ 19 1012.4F   6/ 7   3/ 8
DUCK PIER NC     1800   62 66  350/  8/ 11 1012.9F
44100 DUCK FRF   1800      68                N/A     5/ 7   2/12
44056 DUCK FRF   1800                        N/A     4/ 6
OREGON INLET NC  1800   62 63  310/  9/ 12 1013.6F
HATTERAS NC      1800   62 64  310/ 10/ 12 1014.7F
DIAMOND SHLS NC  1800   62     310/ 14/ 17 1014.7F   4/10   2/10
CAPE LOOKOUT NC  1700   64     330/  6/  8 1016.1F
$$



USA.gov is the U.S. government's official web portal to all federal, state and local government web resources and services.